This demonstration page uses our WeatherBlox Daily Observations layout. Learn more.

Left ArrowRight Arrow

Hourly Observations for March 25, 2019

Temp ( °F °C ) Dew Point ( °F °C ) Humidity (%) Winds ( mph kmh ) Pressure ( in mb ) Visibility ( mi km ) Precip ( " mm )
6:30 am 06:30 Mostly Cloudy with Light Rain 46 8 45 7 93 93 NE 9 15 29.95 1014 7 11 N/A
6:55 am 06:55 Cloudy with Light Rain 46 8 43 6 87 87 NE 9 15 29.96 1015 7 11 N/A
7:24 am 07:24 Cloudy with Light Rain 46 8 43 6 87 87 NNE 10 17 29.98 1015 5 8 N/A
7:52 am 07:52 Cloudy with Light Rain 46 8 43 6 87 87 NE 14 22 29.98 1015 5 8 N/A
8:52 am 08:52 Cloudy with Light Rain 45 7 41 5 87 87 NE 13 20 30.01 1016 7 11 N/A
9:29 am 09:29 Cloudy with Light Rain 45 7 41 5 87 87 NNE 15 24 30.03 1017 8 13 N/A
9:54 am 09:54 Cloudy with Light Rain 45 7 41 5 87 87 NNE 14 22 30.04 1017 8 13 N/A
10:50 am 10:50 Cloudy with Light Rain 45 7 39 4 81 81 N 17 28 30.07 1018 7 11 N/A
11:49 am 11:49 Cloudy 43 6 39 4 87 87 N 18 30 30.08 1019 7 11 N/A
12:12 pm 12:12 Cloudy with Light Rain 41 5 39 4 93 93 NNE 16 26 30.10 1019 5 8 N/A
12:46 pm 12:46 Cloudy with Light Rain 41 5 37 3 87 87 NNE 22 35 30.10 1019 7 11 N/A
1:47 pm 13:47 Cloudy 41 5 36 2 81 81 N 20 31 30.13 1020 7 11 N/A
2:45 pm 14:45 Cloudy 43 6 36 2 76 76 NNE 16 26 30.13 1020 10 16 N/A
3:45 pm 15:45 Cloudy 45 7 37 3 76 76 NNE 18 30 30.13 1020 10 16 N/A
4:45 pm 16:45 Cloudy 45 7 36 2 71 71 NNE 16 26 30.14 1021 10 16 N/A
5:45 pm 17:45 Cloudy 46 8 36 2 66 66 NNE 16 26 30.15 1021 10 16 N/A
6:45 pm 18:45 Mostly Cloudy 46 8 34 1 62 62 NNE 16 26 30.16 1021 10 16 N/A
7:45 pm 19:45 Mostly Sunny 45 7 32 0 61 61 N 14 22 30.19 1022 10 16 N/A
8:45 pm 20:45 Mostly Clear 39 4 36 2 87 87 NNE 12 19 30.22 1024 10 16 N/A
9:45 pm 21:45 Mostly Clear 36 2 27 -3 70 70 NNE 9 15 30.27 1025 10 16 N/A

Powered by AerisWeather